Time,TemperatureF,DewpointF,PressureIn,WindDirection,WindDirectionDegrees,WindSpeedMPH,WindSpeedGustMPH,Humidity,HourlyPrecipIn,Conditions,Clouds,dailyrainin,SoftwareType,DateUTC
2013-06-02 00:14:00,73.3,62.0,29.93,ESE,105,3.0,9.0,68,0.00,,,0.00,weatherlink.com 1.10,2013-06-02 04:14:00,
2013-06-02 00:29:00,73.0,62.0,29.93,South,172,3.0,15.0,69,0.00,,,0.00,weatherlink.com 1.10,2013-06-02 04:29:00,
2013-06-02 00:44:00,72.5,62.0,29.93,SSW,203,5.0,9.0,70,0.00,,,0.00,weatherlink.com 1.10,2013-06-02 04:44:00,
2013-06-02 00:59:00,72.2,62.0,29.93,SSE,162,1.0,11.0,71,0.00,,,0.00,weatherlink.com 1.10,2013-06-02 04:59:00,
2013-06-02 01:14:00,71.8,62.0,29.92,South,169,3.0,5.0,72,0.00,,,0.00,weatherlink.com 1.10,2013-06-02 05:14:00,
2013-06-02 01:29:00,71.6,62.0,29.92,South,171,2.0,8.0,72,0.00,,,0.00,weatherlink.com 1.10,2013-06-02 05:29:00,
2013-06-02 01:44:00,71.6,63.0,29.92,SE,134,2.0,9.0,73,0.00,,,0.00,weatherlink.com 1.10,2013-06-02 05:44:00,
2013-06-02 01:59:00,71.3,63.0,29.92,SSE,155,1.0,5.0,74,0.00,,,0.00,weatherlink.com 1.10,2013-06-02 05:59:00,
2013-06-02 02:14:00,71.2,63.0,29.91,SSE,166,2.0,6.0,74,0.00,,,0.00,weatherlink.com 1.10,2013-06-02 06:14:00,
2013-06-02 02:29:00,70.7,62.0,29.92,South,169,1.0,4.0,75,0.00,,,0.00,weatherlink.com 1.10,2013-06-02 06:29:00,
2013-06-02 02:44:00,70.1,63.0,29.91,South,169,0.0,1.0,77,0.00,,,0.00,weatherlink.com 1.10,2013-06-02 06:44:00,
2013-06-02 02:59:00,69.6,62.0,29.91,SSE,150,1.0,3.0,78,0.00,,,0.00,weatherlink.com 1.10,2013-06-02 06:59:00,
2013-06-02 03:14:00,69.5,62.0,29.91,South,190,3.0,4.0,78,0.00,,,0.00,weatherlink.com 1.10,2013-06-02 07:14:00,
2013-06-02 03:44:00,69.4,62.0,29.91,SSE,150,0.0,1.0,78,0.00,,,0.00,weatherlink.com 1.10,2013-06-02 07:44:00,
2013-06-02 03:59:00,69.0,63.0,29.91,SE,136,0.0,1.0,80,0.00,,,0.00,weatherlink.com 1.10,2013-06-02 07:59:00,
2013-06-02 04:14:00,68.3,62.0,29.91,SE,136,0.0,0.0,81,0.00,,,0.00,weatherlink.com 1.10,2013-06-02 08:14:00,
2013-06-02 04:29:00,67.8,63.0,29.91,SE,136,0.0,0.0,83,0.00,,,0.00,weatherlink.com 1.10,2013-06-02 08:29:00,
2013-06-02 04:44:00,68.0,62.0,29.91,SE,126,0.0,1.0,82,0.00,,,0.00,weatherlink.com 1.10,2013-06-02 08:44:00,
2013-06-02 05:14:00,68.8,63.0,29.90,SSE,152,3.0,6.0,81,0.00,,,0.00,weatherlink.com 1.10,2013-06-02 09:14:00,
2013-06-02 05:29:00,69.4,63.0,29.90,SW,221,0.0,5.0,80,0.00,,,0.00,weatherlink.com 1.10,2013-06-02 09:29:00,
2013-06-02 05:44:00,69.7,63.0,29.90,South,170,1.0,4.0,80,0.00,,,0.00,weatherlink.com 1.10,2013-06-02 09:44:00,
2013-06-02 05:59:00,69.7,63.0,29.90,SW,214,2.0,5.0,80,0.00,,,0.00,weatherlink.com 1.10,2013-06-02 09:59:00,
2013-06-02 06:14:00,70.0,63.0,29.90,SW,222,3.0,6.0,79,0.00,,,0.00,weatherlink.com 1.10,2013-06-02 10:14:00,
2013-06-02 06:29:00,69.8,63.0,29.91,SE,142,3.0,9.0,80,0.00,,,0.00,weatherlink.com 1.10,2013-06-02 10:29:00,
2013-06-02 06:44:00,69.8,64.0,29.91,South,188,2.0,7.0,81,0.00,,,0.00,weatherlink.com 1.10,2013-06-02 10:44:00,
2013-06-02 06:59:00,70.1,64.0,29.91,SSE,163,1.0,9.0,80,0.00,,,0.00,weatherlink.com 1.10,2013-06-02 10:59:00,
2013-06-02 07:14:00,70.1,64.0,29.92,WSW,248,1.0,4.0,81,0.00,,,0.00,weatherlink.com 1.10,2013-06-02 11:14:00,
2013-06-02 07:29:00,70.1,64.0,29.92,SSE,153,1.0,8.0,82,0.00,,,0.00,weatherlink.com 1.10,2013-06-02 11:29:00,
2013-06-02 07:44:00,70.2,65.0,29.93,SW,224,1.0,10.0,82,0.00,,,0.00,weatherlink.com 1.10,2013-06-02 11:44:00,
2013-06-02 08:14:00,71.3,66.0,29.92,SSW,203,5.0,7.0,82,0.00,,,0.00,weatherlink.com 1.10,2013-06-02 12:14:00,
2013-06-02 08:29:00,71.3,66.0,29.92,SE,136,3.0,4.0,82,0.00,,,0.00,weatherlink.com 1.10,2013-06-02 12:29:00,
2013-06-02 08:44:00,70.6,65.0,29.92,SE,139,1.0,5.0,83,0.00,,,0.00,weatherlink.com 1.10,2013-06-02 12:44:00,
2013-06-02 08:59:00,70.3,65.0,29.92,South,170,1.0,5.0,84,0.00,,,0.00,weatherlink.com 1.10,2013-06-02 12:59:00,
2013-06-02 09:14:00,70.3,66.0,29.93,South,188,1.0,3.0,86,0.00,,,0.00,weatherlink.com 1.10,2013-06-02 13:14:00,
2013-06-02 09:29:00,69.6,66.0,29.93,SW,229,0.0,2.0,87,0.01,,,0.01,weatherlink.com 1.10,2013-06-02 13:29:00,
2013-06-02 09:44:00,68.8,66.0,29.93,ESE,110,0.0,4.0,91,0.05,,,0.05,weatherlink.com 1.10,2013-06-02 13:44:00,
2013-06-02 09:59:00,68.3,66.0,29.93,ESE,113,0.0,1.0,93,0.06,,,0.06,weatherlink.com 1.10,2013-06-02 13:59:00,
2013-06-02 10:14:00,68.6,67.0,29.93,NE,34,0.0,2.0,93,0.07,,,0.07,weatherlink.com 1.10,2013-06-02 14:14:00,
2013-06-02 10:29:00,69.7,67.0,29.93,NE,34,0.0,1.0,91,0.06,,,0.07,weatherlink.com 1.10,2013-06-02 14:29:00,
2013-06-02 10:44:00,70.3,68.0,29.93,NNE,33,0.0,1.0,91,0.02,,,0.07,weatherlink.com 1.10,2013-06-02 14:44:00,
2013-06-02 10:59:00,70.1,67.0,29.94,SE,136,2.0,4.0,89,0.01,,,0.07,weatherlink.com 1.10,2013-06-02 14:59:00,
2013-06-02 11:14:00,69.3,66.0,29.93,SSE,155,2.0,5.0,90,0.01,,,0.08,weatherlink.com 1.10,2013-06-02 15:14:00,
2013-06-02 11:29:00,69.1,66.0,29.93,SSE,153,0.0,5.0,91,0.01,,,0.08,weatherlink.com 1.10,2013-06-02 15:29:00,
2013-06-02 11:44:00,69.3,66.0,29.93,South,174,1.0,2.0,90,0.01,,,0.08,weatherlink.com 1.10,2013-06-02 15:44:00,
2013-06-02 11:59:00,69.3,67.0,29.93,SSE,148,0.0,2.0,91,0.01,,,0.08,weatherlink.com 1.10,2013-06-02 15:59:00,
2013-06-02 12:15:00,69.1,67.0,29.93,SE,143,0.0,3.0,92,0.01,,,0.09,weatherlink.com 1.10,2013-06-02 16:15:00,
2013-06-02 12:45:00,68.5,66.0,29.93,SSE,152,0.0,2.0,92,0.03,,,0.11,weatherlink.com 1.10,2013-06-02 16:45:00,
2013-06-02 13:00:00,68.4,66.0,29.93,NW,314,0.0,1.0,93,0.03,,,0.11,weatherlink.com 1.10,2013-06-02 17:00:00,
2013-06-02 13:15:00,68.6,67.0,29.93,NW,314,0.0,0.0,93,0.04,,,0.13,weatherlink.com 1.10,2013-06-02 17:15:00,
2013-06-02 13:30:00,68.5,67.0,29.93,NW,314,1.0,1.0,93,0.04,,,0.14,weatherlink.com 1.10,2013-06-02 17:30:00,
2013-06-02 14:00:00,67.7,66.0,29.92,SE,146,3.0,5.0,93,0.04,,,0.15,weatherlink.com 1.10,2013-06-02 18:00:00,
2013-06-02 14:15:00,68.5,67.0,29.91,SSW,202,0.0,3.0,94,0.02,,,0.15,weatherlink.com 1.10,2013-06-02 18:15:00,
2013-06-02 14:45:00,69.2,66.0,29.91,South,170,4.0,4.0,90,0.01,,,0.15,weatherlink.com 1.10,2013-06-02 18:45:00,
2013-06-02 15:00:00,70.5,68.0,29.90,SSE,164,2.0,2.0,91,0.00,,,0.15,weatherlink.com 1.10,2013-06-02 19:00:00,
2013-06-02 15:15:00,71.7,68.0,29.89,South,180,2.0,5.0,87,0.00,,,0.15,weatherlink.com 1.10,2013-06-02 19:15:00,
2013-06-02 15:30:00,71.5,68.0,29.89,SSE,160,2.0,4.0,87,0.00,,,0.15,weatherlink.com 1.10,2013-06-02 19:30:00,
2013-06-02 15:45:00,71.1,67.0,29.89,SSE,153,4.0,5.0,86,0.00,,,0.15,weatherlink.com 1.10,2013-06-02 19:45:00,
2013-06-02 16:00:00,70.8,66.0,29.90,SSE,167,3.0,11.0,85,0.00,,,0.15,weatherlink.com 1.10,2013-06-02 20:00:00,
2013-06-02 16:15:00,70.3,66.0,29.89,SW,221,1.0,9.0,86,0.00,,,0.15,weatherlink.com 1.10,2013-06-02 20:15:00,
2013-06-02 16:30:00,70.2,66.0,29.89,SE,144,2.0,6.0,86,0.00,,,0.15,weatherlink.com 1.10,2013-06-02 20:30:00,
2013-06-02 16:45:00,70.6,66.0,29.87,West,262,0.0,4.0,86,0.00,,,0.15,weatherlink.com 1.10,2013-06-02 20:45:00,
2013-06-02 17:00:00,71.0,66.0,29.88,SE,125,0.0,2.0,84,0.00,,,0.15,weatherlink.com 1.10,2013-06-02 21:00:00,
2013-06-02 17:15:00,70.9,66.0,29.87,South,191,0.0,1.0,84,0.00,,,0.15,weatherlink.com 1.10,2013-06-02 21:15:00,
2013-06-02 17:30:00,71.9,68.0,29.87,SSE,165,0.0,1.0,87,0.00,,,0.15,weatherlink.com 1.10,2013-06-02 21:30:00,
2013-06-02 17:46:00,71.5,67.0,29.87,SSE,160,1.0,1.0,84,0.00,,,0.15,weatherlink.com 1.10,2013-06-02 21:46:00,
2013-06-02 18:00:00,71.3,67.0,29.87,South,188,0.0,1.0,85,0.00,,,0.15,weatherlink.com 1.10,2013-06-02 22:00:00,
2013-06-02 18:15:00,70.5,67.0,29.87,SSE,163,0.0,0.0,87,0.00,,,0.15,weatherlink.com 1.10,2013-06-02 22:15:00,
2013-06-02 18:30:00,69.2,66.0,29.88,ENE,74,0.0,2.0,90,0.01,,,0.16,weatherlink.com 1.10,2013-06-02 22:30:00,
2013-06-02 18:45:00,67.6,65.0,29.88,SE,140,0.0,3.0,92,0.15,,,0.30,weatherlink.com 1.10,2013-06-02 22:45:00,
2013-06-02 19:16:00,65.9,64.0,29.89,SSW,207,0.0,3.0,94,0.34,,,0.49,weatherlink.com 1.10,2013-06-02 23:16:00,
2013-06-02 19:31:00,65.8,64.0,29.90,South,169,0.0,2.0,95,0.33,,,0.49,weatherlink.com 1.10,2013-06-02 23:31:00,
2013-06-02 20:01:00,65.4,64.0,29.90,SE,124,0.0,0.0,96,0.03,,,0.49,weatherlink.com 1.10,2013-06-03 00:01:00,
2013-06-02 20:16:00,65.4,64.0,29.91,SSE,152,0.0,1.0,96,0.00,,,0.49,weatherlink.com 1.10,2013-06-03 00:16:00,
2013-06-02 20:31:00,65.3,64.0,29.91,SSE,152,0.0,1.0,96,0.00,,,0.49,weatherlink.com 1.10,2013-06-03 00:31:00,
2013-06-02 20:46:00,65.3,65.0,29.91,SSE,152,0.0,0.0,97,0.00,,,0.49,weatherlink.com 1.10,2013-06-03 00:46:00,
2013-06-02 21:01:00,65.2,64.0,29.91,SSE,152,0.0,1.0,97,0.00,,,0.49,weatherlink.com 1.10,2013-06-03 01:01:00,
2013-06-02 21:16:00,65.1,64.0,29.91,SSE,152,0.0,1.0,97,0.00,,,0.49,weatherlink.com 1.10,2013-06-03 01:16:00,
2013-06-02 21:31:00,64.9,64.0,29.91,SSE,153,0.0,0.0,97,0.00,,,0.49,weatherlink.com 1.10,2013-06-03 01:31:00,
2013-06-02 22:01:00,64.7,64.0,29.91,SSE,152,0.0,0.0,97,0.00,,,0.49,weatherlink.com 1.10,2013-06-03 02:01:00,
2013-06-02 22:46:00,64.4,64.0,29.92,SSE,152,0.0,1.0,98,0.00,,,0.49,weatherlink.com 1.10,2013-06-03 02:46:00,
2013-06-02 23:31:00,64.4,64.0,29.91,SSE,152,0.0,1.0,98,0.00,,,0.49,weatherlink.com 1.10,2013-06-03 03:31:00,
2013-06-02 23:47:00,64.3,64.0,29.92,SSE,151,0.0,0.0,98,0.00,,,0.49,weatherlink.com 1.10,2013-06-03 03:47:00,